This demonstration page uses our WeatherBlox Daily Observations layout. Learn more.

Left ArrowRight Arrow

Hourly Observations for June 13, 2015

Temp ( °F °C ) Dew Point ( °F °C ) Humidity (%) Winds ( mph kmh ) Pressure ( in mb ) Visibility ( mi km ) Precip ( " mm )
12:51 am 00:51 Clear 73 22.8 36 2.2 26 26 NW 7 11 29.61 1003 10 16 0.00 0.00
1:51 am 01:51 Clear 74 23.3 36 2.2 25 25 WNW 8 13 29.60 1003 10 16 0.00 0.00
2:51 am 02:51 Clear 74 23.3 36 2.2 25 25 N 3 6 29.61 1003 10 16 0.00 0.00
3:51 am 03:51 Clear 67 19.4 36 2.2 32 32 Calm 29.62 1003 10 16 0.00 0.00
4:51 am 04:51 Clear 65 18.3 39 3.9 39 39 ENE 6 9 29.65 1004 10 16 0.00 0.00
5:51 am 05:51 Sunny 68 20 39 3.9 35 35 ESE 3 6 29.65 1004 10 16 0.00 0.00
6:51 am 06:51 Sunny 73 22.8 40 4.4 30 30 Calm 29.66 1004 10 16 0.00 0.00
7:51 am 07:51 Sunny 78 25.6 41 5 27 27 S 7 11 29.67 1005 10 16 0.00 0.00
8:51 am 08:51 Sunny 83 28.3 39 3.9 21 21 VRB 3 6 29.68 1005 10 16 0.00 0.00
9:51 am 09:51 Sunny 89 31.7 37 2.8 16 16 VRB 5 7 29.65 1004 10 16 0.00 0.00
10:51 am 10:51 Sunny 92 33.3 36 2.2 14 14 undefined N/A 29.64 1004 10 16 0.00 0.00
11:51 am 11:51 Sunny 95 35 35 1.7 12 12 VRB 3 6 29.62 1003 10 16 0.00 0.00
12:51 pm 12:51 Sunny 96 35.6 31 -0.6 10 10 SW 10 17 29.60 1002 10 16 0.00 0.00
1:51 pm 13:51 Sunny 97 36.1 30 -1.1 9 9 VRB 5 7 29.57 1001 10 16 0.00 0.00
2:51 pm 14:51 Sunny 100 37.8 30 -1.1 8 8 SW 13 20 29.53 1000 10 16 0.00 0.00
3:51 pm 15:51 Sunny 101 38.3 29 -1.7 8 8 NW 8 13 29.52 1000 10 16 0.00 0.00
4:51 pm 16:51 Sunny 99 37.2 29 -1.7 8 8 WNW 13 20 29.52 1000 10 16 0.00 0.00
5:51 pm 17:51 Sunny 98 36.7 29 -1.7 9 9 NW 14 22 29.52 1000 10 16 0.00 0.00
6:51 pm 18:51 Sunny 95 35 27 -2.8 9 9 NW 18 30 29.53 1000 10 16 0.00 0.00
7:51 pm 19:51 Clear 91 32.8 28 -2.2 10 10 WNW 15 24 29.54 1000 10 16 0.00 0.00
8:51 pm 20:51 Clear 86 30 29 -1.7 13 13 NW 10 17 29.56 1001 10 16 0.00 0.00
9:51 pm 21:51 Clear 85 29.4 29 -1.7 13 13 NW 14 22 29.58 1002 10 16 0.00 0.00
10:51 pm 22:51 Clear 82 27.8 31 -0.6 16 16 NNW 9 15 29.59 1002 10 16 0.00 0.00
11:51 pm 23:51 Clear 79 26.1 36 2.2 21 21 NNE 7 11 29.60 1002 10 16 0.00 0.00

Powered by AerisWeather